{"data":{"norad_id":67401,"epoch":"2026-09-20T22:22:52.267296Z","epoch_age_seconds":62984,"freshness":"FRESH","line1":"1 67401U 26004AQ  26263.93254939  .00005461  00000+0  26164-3 0  9990","line2":"2 67401  97.4578 261.6585 0009806  19.3001 340.8603 15.19305463 38293","mean_motion":15.19305463,"eccentricity":0.0009806,"inclination_deg":97.4578,"raan_deg":261.6585,"arg_perigee_deg":19.3001,"mean_anomaly_deg":340.8603,"bstar":0.00026164,"rev_number":3829,"period_min":94.780150211307,"perigee_km":501.18593452775,"apogee_km":514.69090564162,"semimajor_km":6886.0754200847,"source":"CELESTRAK","updated_at":"2026-09-21T09:00:16.621827Z"}}